This is the latest recevied weather packets stored in our database for station/object W0SS-13. If no packets are shown the sender has not sent any weather packets the latest 10 day(s).
| Time | Temp. | Humidity | Pressure | Rain* | Wind** | Luminosity | Snow |
|---|---|---|---|---|---|---|---|
| 1777744134 | 14.44° C | 44% | 1022.9 hPa | 0 mm | - | 798 W/m² | - |
| 1777743830 | 13.89° C | 44% | 1022.8 hPa | 0 mm | - | 802 W/m² | - |
| 1777743527 | 14.44° C | 40% | 1023.1 hPa | 0 mm | - | 795 W/m² | - |
| 1777743224 | 13.89° C | 39% | 1022.9 hPa | 0 mm | - | 793 W/m² | - |
| 1777742922 | 14.44° C | 40% | 1023.1 hPa | 0 mm | - | 788 W/m² | - |
| 1777742619 | 13.89° C | 43% | 1023.1 hPa | 0 mm | - | 793 W/m² | - |
| 1777742315 | 13.89° C | 44% | 1023 hPa | 0 mm | - | 775 W/m² | - |
| 1777742011 | 13.89° C | 41% | 1023 hPa | 0 mm | - | 774 W/m² | - |
| 1777741709 | 13.89° C | 46% | 1023.2 hPa | 0 mm | - | 769 W/m² | - |
| 1777741405 | 13.89° C | 44% | 1023.2 hPa | 0 mm | - | 772 W/m² | - |
| 1777741101 | 13.89° C | 43% | 1023 hPa | 0 mm | - | 766 W/m² | - |
| 1777740798 | 13.89° C | 44% | 1022.9 hPa | 0 mm | - | 763 W/m² | - |
| 1777740495 | 13.33° C | 44% | 1023.1 hPa | 0 mm | - | 750 W/m² | - |
| 1777740193 | 13.89° C | 45% | 1023 hPa | 0 mm | - | 754 W/m² | - |
| 1777739888 | 13.89° C | 44% | 1023.1 hPa | 0 mm | - | 738 W/m² | - |
| 1777739585 | 13.89° C | 44% | 1023 hPa | 0 mm | - | 724 W/m² | - |
| 1777739282 | 13.33° C | 44% | 1023 hPa | 0 mm | - | 722 W/m² | - |
| 1777738978 | 13.33° C | 44% | 1023 hPa | 0 mm | - | 727 W/m² | - |
| 1777738675 | 12.78° C | 45% | 1023.2 hPa | 0 mm | - | 713 W/m² | - |
| 1777738366 | 13.33° C | 45% | 1023.2 hPa | 0 mm | - | 701 W/m² | - |
| 1777738064 | 13.33° C | 46% | 1023 hPa | 0 mm | - | 688 W/m² | - |
| 1777737763 | 13.33° C | 46% | 1023 hPa | 0 mm | - | 674 W/m² | - |
| 1777737461 | 13.33° C | 45% | 1023.2 hPa | 0 mm | - | 669 W/m² | - |
| 1777737158 | 13.33° C | 41% | 1023.2 hPa | 0 mm | - | 674 W/m² | - |
| 1777736853 | 12.78° C | 43% | 1023.3 hPa | 0 mm | - | 662 W/m² | - |
* Rain latest hour (hover to see other rain measurements)
** Current wind speed in m/s (hover to see current wind gust speed)